Lid_Strength_Index
9 8 7 5 3 1 1 1 1 1 1 1 2 2 3 3 3 4 4 4 4 4 3 3 3 3 3 3 3 3 4 4 6 4 3 5 8 9 10 9 10 9 10
10 10 9 8 6 5 2 1 1 1 1 1 1 2 2 2 3 3 4 4 4 4 4 3 3 3 4 3 3 4 4 4 5 6 4 8 7 8 9 10 11 10 10
12 11 10 9 8 7 6 5 3 1 1 1 1 1 1 1 2 2 2 3 4 4 4 4 4 4 4 4 4 4 4 4 4 5 5 10 11 11 12 12 12 12 11
12 12 11 10 9 9 8 7 5 4 2 1 1 1 1 1 1 2 2 3 3 3 4 4 4 3 3 4 4 4 4 4 5 5 5 11 12 14 14 14 15 15 14
14 12 12 11 11 11 10 10 8 7 5 2 1 1 1 1 2 2 2 3 3 3 3 3 3 4 7 5 3 4 4 5 6 6 13 14 14 16 13 14 12 14 14
14 14 13 13 13 13 13 12 11 10 8 6 4 2 2 2 5 7 4 2 3 3 3 3 3 9 9 9 8 7 4 4 6 6 7 9 13 13 14 14 14 15 14
13 13 14 15 15 14 14 13 13 12 10 9 7 4 3 2 5 7 8 3 2 2 3 3 3 3 8 4 8 9 8 7 5 6 6 9 10 13 13 15 15 14 14
15 14 15 15 15 15 15 14 14 13 13 11 10 7 6 4 6 6 8 4 2 2 2 2 3 3 4 5 5 6 6 6 6 6 5 6 7 10 10 11 12 14 15
16 16 16 16 15 16 16 14 13 13 13 12 11 10 9 7 8 7 7 3 3 3 2 2 2 3 6 9 6 8 8 8 10 9 8 8 9 10 12 13 14 14 16
18 18 17 16 16 16 16 15 13 12 12 12 13 12 11 9 8 8 7 5 4 4 4 5 10 4 8 10 6 9 11 11 14 15 14 12 12 12 12 10 13 13 16
18 18 18 17 17 17 16 14 13 12 12 12 12 11 11 10 9 9 8 7 6 5 5 5 7 9 9 10 8 8 9 10 13 13 14 15 15 14 13 14 12 11 15
20 20 20 19 18 17 16 15 13 11 12 12 12 11 10 10 10 9 8 8 7 7 6 6 7 9 9 9 9 8 9 12 13 14 14 15 15 15 14 14 14 14 14
22 22 21 20 18 17 17 16 14 12 12 12 12 12 12 10 10 9 9 9 9 9 7 6 8 9 9 9 10 10 13 13 14 14 14 14 14 14 15 15 15 15 15
23 22 21 20 19 18 16 15 14 13 12 12 12 12 12 11 11 10 11 10 11 10 9 9 10 10 9 8 12 12 12 13 13 13 13 14 15 15 15 14 15 15 16
22 21 20 20 20 18 17 17 15 14 12 12 11 11 11 12 11 10 10 10 10 10 12 12 12 12 12 13 12 13 13 14 13 13 14 15 15 15 15 14 15 15 16
23 22 20 19 19 19 19 18 15 14 13 11 10 9 10 9 9 9 9 9 9 9 12 12 11 11 12 12 13 14 14 13 13 14 14 14 15 15 15 15 15 15 16
23 21 19 19 19 19 19 20 20 17 14 13 13 12 12 13 12 11 9 9 9 10 12 12 11 12 12 12 12 13 13 13 14 13 14 14 14 14 15 16 16 16 16
22 20 20 20 20 20 20 19 19 20 20 19 16 15 15 14 13 11 10 10 11 11 12 12 12 12 12 12 12 12 13 14 14 14 14 13 14 14 15 15 16 16 17
22 21 20 20 21 21 20 20 20 21 21 21 20 19 17 16 16 15 15 14 12 12 12 12 13 13 13 13 13 13 13 13 13 13 13 14 14 14 15 15 16 16 17
23 21 21 21 22 22 22 22 22 22 22 22 22 22 19 21 22 21 21 21 21 21 17 13 13 13 13 13 13 13 14 14 14 13 13 13 13 14 14 15 16 17 18
23 23 22 22 22 23 23 24 23 23 23 24 23 22 18 22 23 23 24 24 23 22 22 21 19 13 13 13 13 13 13 14 14 14 14 14 13 15 14 15 16 17 18
23 24 24 24 24 24 24 24 24 25 25 25 25 24 20 24 24 24 24 24 24 23 23 23 22 20 20 15 13 13 13 13 13 13 14 14 15 16 16 17 17 18 19
24 25 25 25 25 25 26 25 26 26 26 26 26 26 26 26 25 25 26 25 24 24 24 24 24 24 23 21 20 17 14 14 14 14 15 16 17 17 18 19 19 19 20
26 26 26 26 27 27 28 28 27 27 27 27 27 27 28 28 27 27 28 27 27 25 24 24 25 25 25 24 23 22 20 18 17 16 16 17 19 19 19 19 19 20 20
27 27 28 28 28 29 29 29 29 29 29 29 29 28 28 28 28 29 29 30 29 28 27 25 25 25 25 25 24 23 22 22 20 19 18 18 19 19 19 19 20 21 22
29 29 29 29 29 29 30 30 31 31 31 31 30 30 30 30 29 30 30 31 31 30 30 28 27 26 25 25 24 23 22 20 22 22 21 21 20 21 20 21 22 22 23